Time,TemperatureF,DewpointF,PressureIn,WindDirection,WindDirectionDegrees,WindSpeedMPH,WindSpeedGustMPH,Humidity,HourlyPrecipIn,Conditions,Clouds,dailyrainin,SolarRadiationWatts/m^2,SoftwareType,DateUTC
2013-02-27 00:00:00,48.2,31.9,29.82,South,179,3.0,5.0,53,0.00,,,0.00,0,Wunderground v.1.15,2013-02-27 06:00:00,
2013-02-27 00:05:00,48.5,31.7,29.82,South,178,4.0,5.0,52,0.00,,,0.00,0,Wunderground v.1.15,2013-02-27 06:05:00,
2013-02-27 00:10:00,48.6,31.8,29.82,South,178,4.0,4.0,52,0.00,,,0.00,0,Wunderground v.1.15,2013-02-27 06:10:00,
2013-02-27 00:15:00,48.7,31.4,29.81,South,178,3.0,4.0,51,0.00,,,0.00,0,Wunderground v.1.15,2013-02-27 06:15:00,
2013-02-27 00:20:00,48.7,31.4,29.81,South,177,3.0,8.0,51,0.00,,,0.00,0,Wunderground v.1.15,2013-02-27 06:20:00,
2013-02-27 00:25:00,48.7,30.9,29.81,South,173,4.0,8.0,50,0.00,,,0.00,0,Wunderground v.1.15,2013-02-27 06:25:00,
2013-02-27 00:30:00,48.8,30.5,29.80,South,173,5.0,5.0,49,0.00,,,0.00,0,Wunderground v.1.15,2013-02-27 06:30:00,
2013-02-27 00:35:00,48.9,30.6,29.80,South,175,6.0,6.0,49,0.00,,,0.00,0,Wunderground v.1.15,2013-02-27 06:35:00,
2013-02-27 00:40:00,49.0,30.1,29.80,South,179,7.0,7.0,48,0.00,,,0.00,0,Wunderground v.1.15,2013-02-27 06:40:00,
2013-02-27 00:45:00,49.0,30.1,29.80,South,178,5.0,7.0,48,0.00,,,0.00,0,Wunderground v.1.15,2013-02-27 06:45:00,
2013-02-27 00:50:00,48.9,30.6,29.80,South,178,4.0,4.0,49,0.00,,,0.00,0,Wunderground v.1.15,2013-02-27 06:50:00,
2013-02-27 00:55:00,48.9,31.1,29.80,South,177,3.0,4.0,50,0.00,,,0.00,0,Wunderground v.1.15,2013-02-27 06:55:00,
2013-02-27 01:00:00,48.9,31.1,29.80,South,177,3.0,3.0,50,0.00,,,0.00,0,Wunderground v.1.15,2013-02-27 07:00:00,
2013-02-27 01:05:00,48.9,31.1,29.80,South,176,3.0,3.0,50,0.00,,,0.00,0,Wunderground v.1.15,2013-02-27 07:05:00,
2013-02-27 01:10:00,48.9,31.1,29.80,South,176,2.0,2.0,50,0.00,,,0.00,0,Wunderground v.1.15,2013-02-27 07:10:00,
2013-02-27 01:20:00,48.8,31.5,29.80,South,177,1.0,1.0,51,0.00,,,0.00,0,Wunderground v.1.15,2013-02-27 07:20:00,
2013-02-27 01:30:00,48.7,31.4,29.81,South,178,0.0,0.0,51,0.00,,,0.00,0,Wunderground v.1.15,2013-02-27 07:30:00,
2013-02-27 01:35:00,48.6,31.3,29.81,South,176,0.0,0.0,51,0.00,,,0.00,0,Wunderground v.1.15,2013-02-27 07:35:00,
2013-02-27 01:45:00,48.3,30.5,29.82,South,177,0.0,0.0,50,0.00,,,0.00,0,Wunderground v.1.15,2013-02-27 07:45:00,
2013-02-27 01:50:00,48.1,30.8,29.82,South,178,0.0,0.0,51,0.00,,,0.00,0,Wunderground v.1.15,2013-02-27 07:50:00,
2013-02-27 01:55:00,47.8,30.5,29.82,South,178,0.0,0.0,51,0.00,,,0.00,0,Wunderground v.1.15,2013-02-27 07:55:00,
2013-02-27 02:00:00,47.5,31.2,29.82,South,176,0.0,0.0,53,0.00,,,0.00,0,Wunderground v.1.15,2013-02-27 08:00:00,
2013-02-27 02:05:00,47.2,30.9,29.82,South,178,0.0,0.0,53,0.00,,,0.00,0,Wunderground v.1.15,2013-02-27 08:05:00,
2013-02-27 02:10:00,46.8,30.6,29.82,South,178,0.0,0.0,53,0.00,,,0.00,0,Wunderground v.1.15,2013-02-27 08:10:00,
2013-02-27 02:20:00,46.0,30.7,29.82,South,177,0.0,0.0,55,0.00,,,0.00,0,Wunderground v.1.15,2013-02-27 08:20:00,
2013-02-27 02:30:00,45.3,31.0,29.82,South,178,1.0,2.0,57,0.00,,,0.00,0,Wunderground v.1.15,2013-02-27 08:30:00,
2013-02-27 02:35:00,45.0,31.1,29.82,South,178,2.0,2.0,58,0.00,,,0.00,0,Wunderground v.1.15,2013-02-27 08:35:00,
2013-02-27 02:45:00,44.7,31.7,29.82,South,178,2.0,2.0,60,0.00,,,0.00,0,Wunderground v.1.15,2013-02-27 08:45:00,
2013-02-27 02:50:00,44.5,31.5,29.82,South,177,2.0,2.0,60,0.00,,,0.00,0,Wunderground v.1.15,2013-02-27 08:50:00,
2013-02-27 02:55:00,44.5,31.9,29.82,South,178,1.0,2.0,61,0.00,,,0.00,0,Wunderground v.1.15,2013-02-27 08:55:00,
2013-02-27 03:00:00,44.4,31.8,29.83,South,178,0.0,0.0,61,0.00,,,0.00,0,Wunderground v.1.15,2013-02-27 09:00:00,
2013-02-27 03:05:00,44.3,31.7,29.83,South,178,0.0,0.0,61,0.00,,,0.00,0,Wunderground v.1.15,2013-02-27 09:05:00,
2013-02-27 03:10:00,44.2,31.6,29.83,South,178,0.0,0.0,61,0.00,,,0.00,0,Wunderground v.1.15,2013-02-27 09:10:00,
2013-02-27 03:15:00,44.1,32.3,29.83,South,178,0.0,0.0,63,0.00,,,0.00,0,Wunderground v.1.15,2013-02-27 09:15:00,
2013-02-27 03:20:00,44.1,32.7,29.83,South,178,0.0,0.0,64,0.00,,,0.00,0,Wunderground v.1.15,2013-02-27 09:20:00,
2013-02-27 03:25:00,44.0,32.6,29.83,South,178,0.0,0.0,64,0.00,,,0.00,0,Wunderground v.1.15,2013-02-27 09:25:00,
2013-02-27 03:35:00,43.7,33.1,29.83,South,178,0.0,2.0,66,0.00,,,0.00,0,Wunderground v.1.15,2013-02-27 09:35:00,
2013-02-27 03:40:00,43.6,33.0,29.83,South,178,0.0,0.0,66,0.00,,,0.00,0,Wunderground v.1.15,2013-02-27 09:40:00,
2013-02-27 03:50:00,43.4,33.2,29.82,South,178,0.0,1.0,67,0.00,,,0.00,0,Wunderground v.1.15,2013-02-27 09:50:00,
2013-02-27 04:00:00,43.2,33.0,29.82,South,178,0.0,0.0,67,0.00,,,0.00,0,Wunderground v.1.15,2013-02-27 10:00:00,
2013-02-27 04:05:00,43.2,33.3,29.82,South,178,0.0,0.0,68,0.00,,,0.00,0,Wunderground v.1.15,2013-02-27 10:05:00,
2013-02-27 04:15:00,43.1,33.6,29.83,South,178,0.0,0.0,69,0.00,,,0.00,0,Wunderground v.1.15,2013-02-27 10:15:00,
2013-02-27 04:20:00,43.1,33.6,29.83,South,178,0.0,0.0,69,0.00,,,0.00,0,Wunderground v.1.15,2013-02-27 10:20:00,
2013-02-27 04:25:00,43.0,33.5,29.83,South,178,0.0,0.0,69,0.00,,,0.00,0,Wunderground v.1.15,2013-02-27 10:25:00,
2013-02-27 04:30:00,42.9,33.4,29.84,South,178,0.0,0.0,69,0.00,,,0.00,0,Wunderground v.1.15,2013-02-27 10:30:00,
2013-02-27 04:35:00,42.8,33.7,29.84,South,178,0.0,0.0,70,0.00,,,0.00,0,Wunderground v.1.15,2013-02-27 10:35:00,
2013-02-27 04:40:00,42.6,33.5,29.84,South,178,0.0,0.0,70,0.00,,,0.00,0,Wunderground v.1.15,2013-02-27 10:40:00,
2013-02-27 04:45:00,42.4,33.7,29.84,South,178,0.0,0.0,71,0.00,,,0.00,0,Wunderground v.1.15,2013-02-27 10:45:00,
2013-02-27 04:55:00,41.9,33.5,29.84,South,178,0.0,0.0,72,0.00,,,0.00,0,Wunderground v.1.15,2013-02-27 10:55:00,
2013-02-27 05:00:00,41.8,33.4,29.85,South,178,0.0,0.0,72,0.00,,,0.00,0,Wunderground v.1.15,2013-02-27 11:00:00,
2013-02-27 05:05:00,41.6,33.6,29.85,South,178,0.0,0.0,73,0.00,,,0.00,0,Wunderground v.1.15,2013-02-27 11:05:00,
2013-02-27 05:10:00,41.4,33.4,29.85,South,178,0.0,0.0,73,0.00,,,0.00,0,Wunderground v.1.15,2013-02-27 11:10:00,
2013-02-27 05:20:00,41.2,33.5,29.86,South,178,0.0,0.0,74,0.00,,,0.00,0,Wunderground v.1.15,2013-02-27 11:20:00,
2013-02-27 05:25:00,41.1,33.8,29.86,South,178,0.0,0.0,75,0.00,,,0.00,0,Wunderground v.1.15,2013-02-27 11:25:00,
2013-02-27 05:35:00,41.5,35.2,29.89,NW,318,4.0,7.0,78,0.00,,,0.00,0,Wunderground v.1.15,2013-02-27 11:35:00,
2013-02-27 05:40:00,42.4,36.0,29.89,NW,321,5.0,7.0,78,0.00,,,0.00,0,Wunderground v.1.15,2013-02-27 11:40:00,
2013-02-27 05:45:00,43.3,36.6,29.90,NNW,327,5.0,7.0,77,0.00,,,0.00,0,Wunderground v.1.15,2013-02-27 11:45:00,
2013-02-27 05:50:00,44.0,36.6,29.90,NW,326,4.0,4.0,75,0.00,,,0.00,0,Wunderground v.1.15,2013-02-27 11:50:00,
2013-02-27 05:55:00,44.5,36.4,29.90,NW,326,2.0,7.0,73,0.00,,,0.00,0,Wunderground v.1.15,2013-02-27 11:55:00,
2013-02-27 06:00:00,45.2,35.6,29.90,NW,318,3.0,3.0,69,0.00,,,0.00,0,Wunderground v.1.15,2013-02-27 12:00:00,
2013-02-27 06:05:00,45.9,34.8,29.90,NW,317,3.0,3.0,65,0.00,,,0.00,0,Wunderground v.1.15,2013-02-27 12:05:00,
2013-02-27 06:10:00,46.5,34.2,29.90,NW,315,3.0,7.0,62,0.00,,,0.00,0,Wunderground v.1.15,2013-02-27 12:10:00,
2013-02-27 06:15:00,47.1,33.9,29.91,NW,311,4.0,7.0,60,0.00,,,0.00,0,Wunderground v.1.15,2013-02-27 12:15:00,
2013-02-27 06:25:00,47.8,33.3,29.91,NW,312,4.0,6.0,57,0.00,,,0.00,0,Wunderground v.1.15,2013-02-27 12:25:00,
2013-02-27 06:30:00,47.9,33.4,29.92,NW,312,3.0,3.0,57,0.00,,,0.00,0,Wunderground v.1.15,2013-02-27 12:30:00,
2013-02-27 06:40:00,47.8,33.3,29.92,NW,312,0.0,0.0,57,0.00,,,0.00,0,Wunderground v.1.15,2013-02-27 12:40:00,
2013-02-27 06:45:00,47.7,33.2,29.92,NW,312,0.0,0.0,57,0.00,,,0.00,0,Wunderground v.1.15,2013-02-27 12:45:00,
2013-02-27 06:50:00,47.6,33.1,29.92,NW,312,0.0,0.0,57,0.00,,,0.00,0,Wunderground v.1.15,2013-02-27 12:50:00,
2013-02-27 06:55:00,47.4,32.5,29.92,NW,312,0.0,0.0,56,0.00,,,0.00,0,Wunderground v.1.15,2013-02-27 12:55:00,
2013-02-27 07:00:00,47.2,32.7,29.92,NW,312,0.0,0.0,57,0.00,,,0.00,0,Wunderground v.1.15,2013-02-27 13:00:00,
2013-02-27 07:05:00,47.0,32.5,29.92,NW,312,0.0,0.0,57,0.00,,,0.00,5,Wunderground v.1.15,2013-02-27 13:05:00,
2013-02-27 07:10:00,46.8,32.4,29.92,NW,311,0.0,0.0,57,0.00,,,0.00,9,Wunderground v.1.15,2013-02-27 13:10:00,
2013-02-27 07:15:00,46.4,32.8,29.93,NW,312,0.0,0.0,59,0.00,,,0.00,14,Wunderground v.1.15,2013-02-27 13:15:00,
2013-02-27 07:20:00,46.2,33.1,29.93,NW,313,0.0,0.0,60,0.00,,,0.00,21,Wunderground v.1.15,2013-02-27 13:20:00,
2013-02-27 07:30:00,45.8,33.5,29.94,NW,313,0.0,0.0,62,0.00,,,0.00,35,Wunderground v.1.15,2013-02-27 13:30:00,
2013-02-27 07:35:00,45.5,33.6,29.94,WNW,293,0.0,0.0,63,0.00,,,0.00,42,Wunderground v.1.15,2013-02-27 13:35:00,
2013-02-27 07:45:00,45.3,33.8,29.95,WNW,292,0.0,0.0,64,0.00,,,0.00,60,Wunderground v.1.15,2013-02-27 13:45:00,
2013-02-27 07:55:00,45.3,34.6,29.95,WNW,292,0.0,0.0,66,0.00,,,0.00,76,Wunderground v.1.15,2013-02-27 13:55:00,
2013-02-27 08:00:00,45.5,34.8,29.96,WNW,292,0.0,0.0,66,0.00,,,0.00,81,Wunderground v.1.15,2013-02-27 14:00:00,
2013-02-27 08:10:00,46.1,33.8,29.96,WNW,292,1.0,1.0,62,0.00,,,0.00,100,Wunderground v.1.15,2013-02-27 14:10:00,
2013-02-27 08:15:00,47.8,32.9,29.97,WNW,292,1.0,2.0,56,0.00,,,0.00,123,Wunderground v.1.15,2013-02-27 14:15:00,
2013-02-27 08:25:00,53.2,31.8,29.97,WNW,298,2.0,4.0,44,0.00,,,0.00,128,Wunderground v.1.15,2013-02-27 14:25:00,
2013-02-27 08:35:00,54.2,31.6,29.98,NW,311,5.0,12.0,42,0.00,,,0.00,165,Wunderground v.1.15,2013-02-27 14:35:00,
2013-02-27 08:45:00,54.8,31.5,29.99,WNW,303,8.0,8.0,41,0.00,,,0.00,216,Wunderground v.1.15,2013-02-27 14:45:00,
2013-02-27 08:50:00,55.4,30.8,29.99,NNW,336,9.0,9.0,39,0.00,,,0.00,243,Wunderground v.1.15,2013-02-27 14:50:00,
2013-02-27 08:55:00,56.2,31.5,29.99,NNW,333,10.0,17.0,39,0.00,,,0.00,244,Wunderground v.1.15,2013-02-27 14:55:00,
2013-02-27 09:00:00,56.6,31.9,29.99,NW,323,10.0,10.0,39,0.00,,,0.00,232,Wunderground v.1.15,2013-02-27 15:00:00,
2013-02-27 09:10:00,56.6,31.9,29.99,North,360,12.0,12.0,39,0.00,,,0.00,278,Wunderground v.1.15,2013-02-27 15:10:00,
2013-02-27 09:15:00,56.6,31.9,30.01,NNW,330,13.0,17.0,39,0.00,,,0.00,294,Wunderground v.1.15,2013-02-27 15:15:00,
2013-02-27 09:25:00,57.4,33.3,30.01,North,360,9.0,12.0,40,0.00,,,0.00,489,Wunderground v.1.15,2013-02-27 15:25:00,
2013-02-27 09:30:00,57.6,33.4,30.02,NNW,329,10.0,10.0,40,0.00,,,0.00,483,Wunderground v.1.15,2013-02-27 15:30:00,
2013-02-27 09:35:00,57.5,34.0,30.02,WNW,303,14.0,14.0,41,0.00,,,0.00,503,Wunderground v.1.15,2013-02-27 15:35:00,
2013-02-27 09:40:00,57.7,33.5,30.02,NW,313,14.0,14.0,40,0.00,,,0.00,694,Wunderground v.1.15,2013-02-27 15:40:00,
2013-02-27 09:45:00,57.9,34.9,30.02,NW,318,14.0,14.0,42,0.00,,,0.00,700,Wunderground v.1.15,2013-02-27 15:45:00,
2013-02-27 09:50:00,58.2,34.0,30.02,WNW,296,15.0,16.0,40,0.00,,,0.00,759,Wunderground v.1.15,2013-02-27 15:50:00,
2013-02-27 10:00:00,58.5,34.2,30.03,NW,307,14.0,14.0,40,0.00,,,0.00,673,Wunderground v.1.15,2013-02-27 16:00:00,
2013-02-27 10:05:00,58.5,34.9,30.03,NW,310,13.0,14.0,41,0.00,,,0.00,555,Wunderground v.1.15,2013-02-27 16:05:00,
2013-02-27 10:10:00,58.2,35.2,30.03,NW,318,11.0,11.0,42,0.00,,,0.00,622,Wunderground v.1.15,2013-02-27 16:10:00,
2013-02-27 10:15:00,58.0,35.6,30.05,NW,321,12.0,19.0,43,0.00,,,0.00,557,Wunderground v.1.15,2013-02-27 16:15:00,